Location: Cybinka
(52.1954°N, 14.8001°E)
Time: 23:44:24
(UTC+01:00)

ISS - Visible Passes

Search period start: 23 January 2019 00:00
Search period end: 02 February 2019 00:00
Orbit: 404 x 410 km, 51.6° (Epoch: 24 January)

Date Brightness Start Highest point End Pass type
(mag) Time Alt. Az. Time Alt. Az. Time Alt. Az.
23 Jan -1.5 18:40:01 10° S 18:41:05 15° S 18:41:05 15° S visible
24 Jan -1.4 17:50:06 10° SSE 17:51:09 11° SE 17:52:03 10° ESE visible
24 Jan -1.2 19:23:54 10° SW 19:24:47 17° SW 19:24:47 17° SW visible
25 Jan -2.6 18:32:52 10° SSW 18:35:41 29° SSE 18:35:41 29° SSE visible
26 Jan -2.0 17:42:03 10° SSW 17:44:35 20° SE 17:46:30 13° ESE visible
26 Jan -1.9 19:17:26 10° WSW 19:19:14 29° SW 19:19:14 29° SW visible
27 Jan -3.3 18:26:11 10° SW 18:29:22 47° SSE 18:30:00 41° ESE visible
27 Jan -0.3 20:02:29 10° W 20:02:43 12° W 20:02:43 12° W visible
28 Jan -2.7 17:35:03 10° SW 17:38:04 34° SSE 17:40:43 13° E visible
28 Jan -2.6 19:11:05 10° W 19:13:26 43° WSW 19:13:26 43° WSW visible
29 Jan -3.7 18:19:42 10° WSW 18:23:00 68° SSE 18:24:07 37° E visible
29 Jan -0.6 19:56:11 10° W 19:56:50 15° W 19:56:50 15° W visible
30 Jan -3.3 17:28:22 10° WSW 17:31:36 53° SSE 17:34:47 10° E visible
30 Jan -3.3 19:04:44 10° W 19:07:30 58° W 19:07:30 58° W visible
31 Jan -3.8 18:13:18 10° W 18:16:37 82° S 18:18:09 29° E visible
31 Jan -1.0 19:49:49 10° W 19:50:52 19° W 19:50:52 19° W visible
01 Feb -3.7 17:21:52 10° WSW 17:25:10 73° S 17:28:28 10° E visible
01 Feb -3.7 18:58:21 10° W 19:01:32 72° SW 19:01:32 72° SW visible
